Погода в Ханаме

Южная Корея     37°32′16″N   127°12′16″E
темп.,
°C
ветер,
м/с
пор.,
м/с
влажн.,
%
обл.,
%
осадки,
мм/ч
давл.,
гПа
погр.,
м
15 апреля, чт
чт1500:00+6ююз116634 0.0 1020191
03:00+6юв1172100 0.0 1020140
06:00+5юв1182100 0.0 102078
09:00+9ююв1158100 0.0 1021542
12:00+14зюз1236100 0.0 10201025
15:00+16юз1226100 0.0 10171520
18:00+15зюз34280 0.0 1016716
21:00+11сз113584 0.0 101759
16 апреля, пт
пт1600:00+9ююз134379 0.0 1017229
03:00+9ю2553100 0.0 1016446
06:00+10ююз2754100 0.0 1015600
09:00+9ю3967100 1.3 1015973
12:00+11ююз51078100 0.1 1015933
15:00+15зюз7124625 0.1 10141603
18:00+12зюз51025100 0.0 10151000
21:00+9юз2432100 0.0 1017303
17 апреля, сб
сб1700:00+8юв1135100 0.0 101717
03:00+6юв12434 0.0 101525
06:00+5юв225423 0.0 101350
09:00+7зюз3779100 0.9 1014612
12:00+12з59375 0.3 10132377
15:00+12з8122944 0.3 10112350
18:00+9з7105666 0.0 10121491
21:00+8зсз61164100 0.1 10131556
18 апреля, вс
вс1800:00+8зсз6126644 0.1 10131387
03:00+7зсз5107213 0.1 1013890
06:00+6зсз410732 0.0 1014601
09:00+10сз611441 0.0 10151194
12:00+15зсз69322 0.0 10151728
15:00+17зсз69260 0.0 10132014
18:00+15зсз58270 0.0 10131159
21:00+11з37350 0.0 1015454
19 апреля, пн
пн1900:00+9зюз14480 0.0 1017214
03:00+8ююз11530 0.0 101721
06:00+6ююв11640 0.0 101824
09:00+12ююз12430 0.0 1018503
12:00+17зюз35230 0.0 10171098
15:00+19зюз57210 0.0 10161105
18:00+16зюз47320 0.0 1016561
21:00+12з125088 0.0 1018165